Location: Deutschhof
(49.0845°N, 8.0182°E)
Time: 09:05:16
(UTC+00:00)

Daily predictions for brighter satellites

Satellite Brightness Start Highest point End
(mag) Time Altitude Azimuth Time Altitude Azimuth Time Altitude Azimuth
Cosmos 1125 Rocket 4.3 20:04:27 10° NNW 20:09:32 51° WSW 20:14:32 10° S
Cosmos 2298 Rocket 4.4 20:04:43 10° NNW 20:09:57 55° ENE 20:15:08 10° SE
Cosmos 2150 Rocket 4.3 20:06:19 10° NNW 20:11:43 61° ENE 20:17:01 10° SE
CZ-4B R/B 3.8 20:08:34 10° SE 20:12:02 33° ENE 20:15:36 10° N
Cosmos 836 Rocket 4.5 20:08:33 10° SSW 20:13:42 73° ESE 20:18:55 10° NNE
USA 186 1.2 20:11:34 10° SSE 20:13:53 50° ENE 20:16:05 10° N
Sich 1 3.6 20:12:32 10° N 20:16:38 43° ENE 20:20:43 10° SSE
BREEZE-M R/B 4.4 20:10:05 10° WNW 20:18:43 72° SSW 20:24:21 10° ESE
Terra 3.3 20:22:05 10° SSW 20:26:23 35° W 20:30:42 10° NNW
CENTAUR R/B 2.9 20:23:07 10° SW 20:28:44 71° NW 20:35:58 10° NE
Cosmos 44 Rocket 4.0 20:23:43 10° NW 20:28:44 52° WSW 20:33:37 10° SSE
Cosmos 1758 3.5 20:27:41 10° N 20:31:16 48° ENE 20:34:45 11° SSE
Meteor 1-27 Rocket 4.4 20:28:24 10° SSW 20:33:54 58° WNW 20:39:22 10° N
Cosmos 2208 Rocket 3.9 20:30:23 10° SSW 20:35:34 78° ESE 20:40:45 10° NNE
BREEZE-M DEB (TANK) 1.5 20:34:50 10° W 20:37:25 86° NNE 20:39:27 10° E
SPOT 3 Rocket 3.6 20:34:17 10° SSE 20:39:24 79° ENE 20:44:34 10° NNW
SL-12 R/B (Aux Motor) 4.3 20:38:56 10° WSW 20:41:16 53° S 20:45:37 10° E
FAST 4.4 20:39:55 10° N 20:42:34 88° W 20:45:29 10° S
YAOGAN 11 4.2 20:38:17 10° NNE 20:42:47 86° WNW 20:47:11 10° SSW
Cosmos 2227 4.2 20:39:47 10° SSW 20:45:32 85° ESE 20:51:20 10° NNE
Okean 3 Rocket 3.6 20:42:25 10° N 20:46:54 77° E 20:51:06 11° SSE
Cosmos 724 4.4 20:41:44 10° NW 20:47:34 73° NE 20:52:53 12° SE
CZ-4 R/B 4.2 20:46:55 10° WSW 20:47:55 11° W 20:48:55 10° WNW
Helios 1A Rocket 4.5 20:46:03 10° N 20:48:45 27° WNW 20:51:26 10° SW
Ariane Rocket 3.0 20:44:08 11° SSE 20:49:01 74° ENE 20:54:07 10° N
IRS-1C Rocket 4.1 20:44:30 11° SSE 20:49:35 75° ENE 20:54:51 10° NNW
Okean-O 3.6 20:46:06 10° S 20:50:15 43° W 20:54:26 10° NNW
Cosmos 1805 Rocket 3.8 20:48:55 10° N 20:53:10 56° ENE 20:56:46 14° SSE
NOSS 3-2 (A) 3.1 20:51:21 10° SSW 20:56:20 77° SE 21:02:23 10° NE
Cosmos 1340 Rocket 2.6 20:52:47 10° NNW 20:56:35 88° WSW 20:59:47 14° S
Cosmos 1408 Rocket 3.7 20:52:58 10° N 20:57:21 63° ENE 21:01:00 15° SSE
USA 215 3.5 20:51:05 10° ESE 20:57:35 74° NNE 21:04:06 10° NW
Cosmos 1842 Rocket 4.0 20:53:38 10° SSW 20:58:02 63° WNW 21:02:27 10° N
Cosmos 1603 3.9 20:52:54 10° NNW 20:58:38 71° WSW 21:03:42 13° SSE
BREEZE-M DEB (TANK) 3.3 21:00:32 10° WSW 21:01:26 12° SW 21:01:54 11° SSW
Cosmos 1743 Rocket 4.1 21:00:32 10° N 21:04:41 44° ENE 21:07:49 17° SE
Cosmos 1703 3.7 21:04:34 18° SE 21:06:12 29° E 21:09:01 10° NNE
USA 245 3.6 21:03:10 11° S 21:06:44 50° WSW 21:09:48 10° NNW
Cosmos 1844 Rocket 3.0 21:02:28 10° SW 21:08:01 68° WNW 21:13:35 10° NNE
SL-14 R/B 3.7 21:07:13 10° SSW 21:10:52 57° WNW 21:14:33 10° N
Cosmos 1553 Rocket 4.1 21:07:25 10° S 21:13:46 72° E 21:20:04 10° NNE
CZ-4C R/B 4.0 21:08:30 10° NW 21:15:04 38° WSW 21:22:43 11° S
Cosmos 1833 Rocket 3.3 21:12:53 10° NNW 21:18:24 50° NE 21:22:56 15° SE
Cosmos 1151 Rocket 3.0 21:14:26 11° S 21:18:34 86° E 21:22:55 10° N
Cosmos 2082 Rocket 4.4 21:19:20 10° N 21:23:08 18° NE 21:26:54 10° E
CZ-2C R/B 1.8 21:23:48 26° S 21:25:11 82° WSW 21:27:57 10° NNW
Cosmos 1953 2.6 21:24:16 10° N 21:27:43 43° ENE 21:29:35 22° SE
SL-24 R/B - RUBIN 2 4.5 21:24:24 10° WSW 21:28:46 51° NW 21:33:03 10° NNE
CZ-4B R/B 4.0 21:24:45 13° S 21:29:06 55° W 21:34:12 10° NNW
Cosmos 2278 Rocket 4.1 21:28:07 11° ESE 21:29:54 13° E 21:32:24 10° ENE
Okean O Rocket 3.9 21:26:54 10° SW 21:29:56 18° W 21:33:00 10° NW
Cosmos 1633 Rocket 3.9 21:31:29 10° N 21:35:35 38° ENE 21:38:07 20° SE
NOSS 3-2 (C) 3.1 21:32:48 10° SSW 21:37:43 62° SE 21:43:37 10° NE
Cosmos 1461 4.0 21:40:41 10° WNW 21:43:33 24° WSW 21:45:06 18° SSW
NOSS 2-3 (C) 3.5 21:42:37 28° SSE 21:43:41 35° ESE 21:46:57 10° NE
Cosmos 1745 Rocket 4.0 21:40:17 10° N 21:46:35 80° E 21:51:04 21° SSE
Helios 1A 3.0 21:51:45 10° NNE 21:55:37 53° E 21:57:26 28° SSE
Cosmos 2344 3.7 21:48:48 11° SSW 21:56:09 48° ESE 22:02:58 10° NE
GP-B 3.8 21:53:47 10° N 21:58:00 49° W 22:01:23 15° SSW
Helios 1B rocket 2.8 21:57:42 25° ESE 21:59:10 40° ENE 22:02:27 10° N
Iridium 4 Rocket 3.8 21:55:05 16° SSW 21:59:26 68° W 22:04:29 10° N
BREEZE-M R/B 4.4 21:57:28 14° SSW 22:01:27 42° SE 22:10:09 10° ENE
ARIANE 5 R/B 3.6 21:59:12 19° ESE 22:01:47 37° ENE 22:05:52 10° N
SWARM A 4.4 22:01:09 10° N 22:04:22 62° W 22:05:43 30° SSW
Cosmos 1470 Rocket 3.9 22:03:06 10° N 22:07:29 54° ENE 22:09:41 27° SE
Okean 2 4.1 22:07:04 27° SE 22:08:17 35° E 22:11:48 10° NNE
Cosmos 1241 Rocket 4.4 22:02:46 10° SSW 22:08:56 74° ESE 22:15:10 10° NE
Cosmos 1420 Rocket 4.0 22:04:55 10° NNW 22:10:10 78° ENE 22:13:10 26° SSE
NOSS 2-3 (D) 3.2 22:07:15 10° SW 22:10:56 81° NW 22:14:48 10° NE
ALOS 2 3.5 22:11:55 22° SE 22:14:16 41° ENE 22:18:24 10° N
Cosmos 1538 Rocket 4.1 22:11:36 14° SSW 22:16:02 78° WNW 22:21:18 10° NNE
Cosmos 2315 Rocket 4.0 22:13:38 22° S 22:17:50 80° E 22:24:05 10° NNE
Cosmos 1943 Rocket 2.8 22:16:33 26° SSE 22:19:07 40° ESE 22:24:22 10° NE
Meteor 1-21 4.2 22:18:13 25° S 22:21:36 73° E 22:27:14 10° NNE
Cosmos 923 Rocket 4.1 22:21:15 27° S 22:24:03 59° ESE 22:29:11 10° NNE
Cosmos 1328 Rocket 3.7 22:24:39 25° SSW 22:27:10 70° W 22:31:31 10° N
CZ-2C R/B 3.9 22:22:56 10° NNE 22:27:36 61° ESE 22:29:46 30° S
Lacrosse 5 rocket 1.0 22:30:44 42° S 22:31:29 52° SE 22:34:55 10° ENE
CZ-2C R/B 3.9 22:31:43 15° ESE 22:35:17 32° ENE 22:39:52 10° N
Cosmos 1666 Rocket 4.2 22:31:15 10° NNW 22:35:24 45° W 22:37:29 25° SSW
USA 81 4.2 22:32:57 10° N 22:38:11 63° E 22:40:53 28° SSE
NOSS 2-3 (E) 4.2 22:35:06 10° WSW 22:38:37 46° NW 22:42:24 10° NE
Cosmos 1371 Rocket 4.1 22:35:30 10° NNW 22:40:47 73° ENE 22:43:38 27° SE
USA 215 3.7 22:37:29 25° S 22:40:52 45° SW 22:47:05 10° WNW
PSLV R/B 4.1 22:38:21 10° NNE 22:42:53 51° E 22:44:44 32° SSE
Cosmos 1869 Rocket 4.2 22:42:43 10° N 22:46:51 44° ENE 22:48:44 27° SE
GEOS 3 Rocket 3.7 22:45:16 28° SSE 22:48:05 66° SW 22:53:28 10° NW
MetOp-A 4.1 22:53:36 26° ESE 22:55:20 42° ENE 22:58:59 10° N
NOSS 2-1 (D) 3.7 22:55:58 34° ESE 22:55:58 34° ESE 22:58:42 10° ENE
Cosmos 1515 Rocket 3.5 22:55:38 34° SSW 22:57:30 82° W 23:01:52 10° N
Cosmos 2154 Rocket 4.2 22:52:02 10° N 22:58:13 64° ENE 23:01:51 26° SSE
CSL-04 DEB 4.4 22:57:32 39° SSW 22:58:34 54° WSW 23:02:11 10° NNW
NOSS 2-1 (C) 4.0 22:59:06 30° ESE 22:59:06 30° ESE 23:01:41 10° ENE
ARGOS Delta rocket 4.4 22:53:44 10° N 22:59:04 63° WNW 23:02:18 23° SSW
Cosmos 2184 Rocket 4.1 22:53:00 10° N 22:59:15 71° E 23:02:54 27° SSE
USA 59 Rocket -0.4 23:01:29 46° SE 23:01:34 46° SE 23:04:32 10° NE
Spot 4 4.0 22:59:30 32° S 23:01:39 63° WSW 23:06:28 10° NNW
Cosmos 1833 Rocket 3.8 22:57:10 10° NW 23:02:05 31° WSW 23:04:36 22° SSW
Cosmos 1953 4.4 23:00:14 10° NW 23:02:14 14° W 23:03:47 12° WSW
SAR-Lupe-2 3.4 23:05:52 49° SE 23:06:32 68° ENE 23:09:46 10° N
Cosmos 1733 Rocket 4.4 23:03:05 10° N 23:06:53 30° ENE 23:09:08 19° ESE
Cosmos 2082 Rocket 2.4 23:02:38 10° NNW 23:08:17 70° ENE 23:11:51 23° SE
Okean 3 3.2 23:09:18 41° S 23:10:37 89° ESE 23:14:38 10° N
Cosmos 2278 Rocket 2.1 23:09:54 28° SSW 23:12:59 77° ESE 23:18:40 10° NNE
Cosmos 1331 Rocket 4.1 23:15:27 10° NNW 23:20:36 68° ENE 23:23:34 25° SE
Okean 1-7 4.2 23:20:00 23° SE 23:21:28 29° E 23:25:07 10° NNE
Cosmos 1400 Rocket 3.1 23:21:06 10° NNW 23:24:39 46° W 23:25:30 38° SW
Cosmos 1624 Rocket 4.4 23:19:54 10° NNW 23:25:02 50° WSW 23:27:15 31° SSW
Cosmos 1680 Rocket 3.8 23:22:43 22° SW 23:25:59 61° WNW 23:31:10 10° NNE
COSMOS 2406 4.0 23:20:58 10° NNW 23:26:32 50° NE 23:31:27 13° SE
CZ-2C R/B 3.1 23:21:22 10° NNE 23:26:59 81° ESE 23:29:38 31° S
Cosmos 494 Rocket 4.2 23:24:38 25° SW 23:27:42 70° WNW 23:32:58 10° NNE
Cosmos 2056 Rocket 4.1 23:26:56 10° NW 23:31:44 41° WSW 23:33:39 29° SSW
Helios 1B rocket 4.1 23:31:35 15° WSW 23:32:16 16° W 23:34:28 10° NW
Cosmos 1048 Rocket 4.0 23:31:20 33° S 23:33:39 68° ESE 23:38:53 10° NNE
Cosmos 1328 3.6 23:35:16 47° SSE 23:36:04 65° E 23:39:36 10° NNE
Cosmos 1812 4.1 23:35:19 10° NW 23:35:32 12° NW 23:35:32 12° NW
ARIANE 5 R/B 4.0 23:36:34 22° SW 23:38:08 28° W 23:41:58 10° NW
ACS3 Solar Sail 2.0 23:34:34 10° NNE 23:40:10 53° E 23:43:11 27° SSE
USA 238 DEB 3.6 23:36:16 17° SW 23:41:13 80° NW 23:48:05 10° NE
USA 238 3.6 23:36:31 17° SW 23:41:25 80° NW 23:48:18 10° NE
Lacrosse 4 Rocket 4.3 23:39:59 10° N 23:42:31 15° NE 23:45:02 10° ENE
Geosat 4.2 23:42:34 10° NE 23:47:32 58° ESE 23:49:42 32° S
BREEZE-M DEB (TANK) 3.2 23:38:25 10° W 23:50:16 90° WNW 23:54:02 10° E
ALOS 2 4.1 23:49:18 20° WSW 23:50:45 24° W 23:54:21 10° NW
SWAS 4.2 23:52:23 41° S 23:53:41 72° ESE 23:57:44 10° NNE
TIMED 4.3 23:53:01 38° SSW 23:54:37 86° ESE 23:58:53 10° NNE
Cosmos 614 Rocket 4.1 23:52:40 32° S 23:54:54 59° ESE 23:59:54 10° NNE
Cosmos 1441 Rocket 4.0 23:54:17 28° WSW 23:55:09 33° WNW 23:58:08 10° N
